| time (UTC) | temp F | wind direction | speed knots | gust knots | rain 1hr in | rain 24hr in | rain mn in | humidity % | barometer mb |
| 20260506235024 | 82 | 178 | 0.9 | 0.9 | 0.00 | 0.00 | 0.00 | 85 | 1014.6 |
| 20260506234525 | 82 | 204 | 0.9 | 0.9 | 0.00 | 0.00 | 0.00 | 85 | 1014.6 |
| 20260506234025 | 82 | 187 | 1.7 | 1.7 | 0.00 | 0.00 | 0.00 | 85 | 1014.6 |
| 20260506233524 | 82 | 182 | 0.9 | 1.7 | 0.00 | 0.00 | 0.00 | 85 | 1014.6 |
| 20260506233025 | 82 | 180 | 1.7 | 4.3 | 0.00 | 0.00 | 0.00 | 86 | 1014.6 |
| 20260506232525 | 81 | 182 | 0.9 | 0.9 | 0.00 | 0.00 | 0.00 | 86 | 1014.6 |
| 20260506232024 | 81 | 148 | 0.9 | 0.9 | 0.00 | 0.00 | 0.00 | 86 | 1014.6 |
| 20260506231524 | 81 | 176 | 0.9 | 0.9 | 0.00 | 0.00 | 0.00 | 87 | 1014.6 |
| 20260506231024 | 81 | 188 | 0.0 | 0.0 | 0.00 | 0.00 | 0.00 | 87 | 1014.2 |
| 20260506230525 | 81 | 203 | 0.0 | 0.0 | 0.00 | 0.00 | 0.00 | 87 | 1014.6 |
| 20260506230024 | 81 | 183 | 0.9 | 0.9 | 0.00 | 0.00 | 0.00 | 87 | 1014.2 |
| 20260506225524 | 81 | 202 | 0.9 | 0.9 | 0.00 | 0.00 | 0.00 | 87 | 1014.6 |
| 20260506225027 | 81 | 198 | 0.0 | 0.0 | 0.00 | 0.00 | 0.00 | 87 | 1014.6 |
| 20260506224525 | 81 | 196 | 0.9 | 1.7 | 0.00 | 0.00 | 0.00 | 87 | 1014.2 |
| 20260506224024 | 81 | 189 | 0.9 | 0.9 | 0.00 | 0.00 | 0.00 | 87 | 1014.2 |
| 20260506223524 | 81 | 161 | 0.9 | 0.9 | 0.00 | 0.00 | 0.00 | 87 | 1013.9 |
| 20260506223024 | 81 | 124 | 1.7 | 1.7 | 0.00 | 0.00 | 0.00 | 87 | 1013.9 |
| 20260506222524 | 81 | 182 | 0.0 | 0.9 | 0.00 | 0.00 | 0.00 | 88 | 1014.2 |
| 20260506222024 | 81 | 175 | 0.0 | 0.0 | 0.00 | 0.00 | 0.00 | 88 | 1013.9 |
| 20260506221524 | 81 | 200 | 0.0 | 0.0 | 0.00 | 0.00 | 0.00 | 88 | 1014.2 |
| 20260506221026 | 81 | 196 | 0.0 | 0.9 | 0.00 | 0.00 | 0.00 | 88 | 1013.9 |
| 20260506220524 | 81 | 188 | 0.0 | 0.0 | 0.00 | 0.00 | 0.00 | 87 | 1014.2 |
| 20260506220025 | 81 | 181 | 0.9 | 1.7 | 0.00 | 0.00 | 0.00 | 87 | 1013.9 |
| 20260506215524 | 81 | 184 | 0.9 | 0.9 | 0.00 | 0.00 | 0.00 | 87 | 1013.9 |
| 20260506215024 | 81 | 179 | 1.7 | 1.7 | 0.00 | 0.00 | 0.00 | 87 | 1013.9 |
| 20260506214524 | 81 | 197 | 1.7 | 1.7 | 0.00 | 0.00 | 0.00 | 87 | 1013.9 |
| 20260506214024 | 81 | 222 | 1.7 | 1.7 | 0.00 | 0.00 | 0.00 | 87 | 1013.9 |
| 20260506213524 | 81 | 205 | 0.0 | 0.0 | 0.00 | 0.00 | 0.00 | 87 | 1013.9 |
| 20260506213025 | 81 | 201 | 0.9 | 0.9 | 0.00 | 0.00 | 0.00 | 87 | 1013.9 |
| 20260506212524 | 81 | 202 | 0.0 | 0.0 | 0.00 | 0.00 | 0.00 | 87 | 1013.5 |
| 20260506212024 | 81 | 184 | 0.0 | 0.9 | 0.00 | 0.00 | 0.00 | 87 | 1013.5 |
| 20260506211524 | 81 | 185 | 0.0 | 0.0 | 0.00 | 0.00 | 0.00 | 87 | 1013.9 |
| 20260506211024 | 81 | 171 | 1.7 | 1.7 | 0.00 | 0.00 | 0.00 | 87 | 1013.9 |
| 20260506210524 | 81 | 188 | 0.0 | 0.9 | 0.00 | 0.00 | 0.00 | 87 | 1013.9 |
| 20260506210025 | 81 | 179 | 0.0 | 0.9 | 0.00 | 0.00 | 0.00 | 87 | 1013.9 |
| 20260506205524 | 82 | 195 | 0.0 | 0.0 | 0.00 | 0.00 | 0.00 | 87 | 1013.9 |
| 20260506205026 | 82 | 206 | 0.9 | 0.9 | 0.00 | 0.00 | 0.00 | 87 | 1013.9 |
| 20260506204525 | 82 | 187 | 0.9 | 0.9 | 0.00 | 0.00 | 0.00 | 87 | 1013.9 |
| 20260506204024 | 82 | 191 | 0.9 | 1.7 | 0.00 | 0.00 | 0.00 | 87 | 1013.9 |
| 20260506203524 | 82 | 166 | 1.7 | 1.7 | 0.00 | 0.00 | 0.00 | 87 | 1013.5 |
| 20260506203024 | 82 | 164 | 0.9 | 0.9 | 0.00 | 0.00 | 0.00 | 86 | 1013.9 |
| 20260506202525 | 82 | 150 | 0.9 | 0.9 | 0.00 | 0.00 | 0.00 | 86 | 1013.5 |
| 20260506202024 | 82 | 152 | 2.6 | 2.6 | 0.00 | 0.00 | 0.00 | 86 | 1013.9 |
| 20260506201524 | 82 | 153 | 2.6 | 2.6 | 0.00 | 0.00 | 0.00 | 86 | 1013.5 |
| 20260506201024 | 82 | 163 | 0.9 | 1.7 | 0.00 | 0.00 | 0.00 | 86 | 1013.5 |
| 20260506200524 | 82 | 170 | 0.0 | 0.9 | 0.00 | 0.00 | 0.00 | 85 | 1013.5 |
| 20260506200024 | 82 | 168 | 0.0 | 0.9 | 0.00 | 0.00 | 0.00 | 85 | 1013.9 |
| 20260506195525 | 82 | 167 | 1.7 | 1.7 | 0.00 | 0.00 | 0.00 | 85 | 1013.5 |
| 20260506195028 | 82 | 156 | 1.7 | 1.7 | 0.00 | 0.00 | 0.00 | 85 | 1013.9 |
| 20260506194525 | 82 | 138 | 2.6 | 2.6 | 0.00 | 0.00 | 0.00 | 84 | 1013.5 |
| 20260506194025 | 83 | 134 | 1.7 | 1.7 | 0.00 | 0.00 | 0.00 | 85 | 1013.9 |
| 20260506193528 | 83 | 145 | 2.6 | 2.6 | 0.00 | 0.00 | 0.00 | 84 | 1013.5 |
| 20260506193026 | 83 | 157 | 0.9 | 1.7 | 0.00 | 0.00 | 0.00 | 84 | 1013.9 |
| 20260506192525 | 83 | 111 | 1.7 | 1.7 | 0.00 | 0.00 | 0.00 | 84 | 1013.9 |
| 20260506192024 | 83 | 125 | 1.7 | 1.7 | 0.00 | 0.00 | 0.00 | 84 | 1013.9 |
| 20260506191526 | 83 | 156 | 0.9 | 0.9 | 0.00 | 0.00 | 0.00 | 84 | 1013.9 |
| 20260506191028 | 83 | 184 | 0.9 | 1.7 | 0.00 | 0.00 | 0.00 | 84 | 1013.9 |
| 20260506190526 | 83 | 125 | 2.6 | 2.6 | 0.00 | 0.00 | 0.00 | 84 | 1013.9 |
| 20260506190024 | 83 | 162 | 0.9 | 0.9 | 0.00 | 0.00 | 0.00 | 84 | 1013.9 |
| 20260506185525 | 83 | 187 | 0.0 | 0.0 | 0.00 | 0.00 | 0.00 | 84 | 1013.9 |
| 20260506185025 | 83 | 176 | 0.9 | 0.9 | 0.00 | 0.00 | 0.00 | 84 | 1013.9 |
| 20260506184524 | 83 | 124 | 1.7 | 1.7 | 0.00 | 0.00 | 0.00 | 84 | 1013.9 |
| 20260506184024 | 84 | 184 | 3.5 | 4.3 | 0.00 | 0.00 | 0.00 | 84 | 1014.2 |
| 20260506183524 | 84 | 193 | 1.7 | 2.6 | 0.00 | 0.00 | 0.00 | 83 | 1014.2 |
| 20260506183024 | 84 | 174 | 1.7 | 1.7 | 0.00 | 0.00 | 0.00 | 83 | 1014.2 |
| 20260506182525 | 84 | 188 | 0.0 | 0.0 | 0.00 | 0.00 | 0.00 | 82 | 1013.9 |
| 20260506182024 | 84 | 143 | 0.9 | 0.9 | 0.00 | 0.00 | 0.00 | 82 | 1014.2 |
| 20260506181524 | 84 | 165 | 0.9 | 0.9 | 0.00 | 0.00 | 0.00 | 82 | 1014.2 |
| 20260506181024 | 84 | 119 | 3.5 | 4.3 | 0.00 | 0.00 | 0.00 | 82 | 1014.2 |
| 20260506180525 | 84 | 122 | 0.9 | 0.9 | 0.00 | 0.00 | 0.00 | 82 | 1014.2 |
| 20260506180025 | 84 | 114 | 1.7 | 1.7 | 0.00 | 0.00 | 0.00 | 82 | 1014.6 |
| 20260506175527 | 84 | 120 | 0.9 | 0.9 | 0.00 | 0.00 | 0.00 | 82 | 1014.6 |
| 20260506175026 | 84 | 139 | 3.5 | 4.3 | 0.00 | 0.00 | 0.00 | 82 | 1014.6 |
| 20260506174525 | 84 | 148 | 1.7 | 1.7 | 0.00 | 0.00 | 0.00 | 82 | 1014.6 |
| 20260506174025 | 84 | 111 | 1.7 | 1.7 | 0.00 | 0.00 | 0.00 | 82 | 1014.6 |
| 20260506173524 | 84 | 144 | 2.6 | 2.6 | 0.00 | 0.00 | 0.00 | 82 | 1014.6 |
| 20260506173025 | 84 | 117 | 3.5 | 4.3 | 0.00 | 0.00 | 0.00 | 82 | 1014.6 |
| 20260506172525 | 84 | 151 | 0.9 | 1.7 | 0.00 | 0.00 | 0.00 | 83 | 1014.6 |
| 20260506172024 | 84 | 157 | 0.9 | 0.9 | 0.00 | 0.00 | 0.00 | 83 | 1014.6 |
| 20260506171525 | 84 | 166 | 0.9 | 1.7 | 0.00 | 0.00 | 0.00 | 83 | 1014.6 |
| 20260506171025 | 84 | 145 | 1.7 | 1.7 | 0.00 | 0.00 | 0.00 | 83 | 1014.6 |
| 20260506170527 | 84 | 139 | 0.9 | 1.7 | 0.00 | 0.00 | 0.00 | 83 | 1014.6 |
| 20260506170024 | 84 | 114 | 2.6 | 4.3 | 0.00 | 0.00 | 0.00 | 83 | 1014.6 |
| 20260506165524 | 84 | 110 | 2.6 | 2.6 | 0.00 | 0.00 | 0.00 | 83 | 1014.6 |
| 20260506165024 | 84 | 138 | 1.7 | 1.7 | 0.00 | 0.00 | 0.00 | 83 | 1014.6 |
| 20260506164525 | 84 | 149 | 0.9 | 0.9 | 0.00 | 0.00 | 0.00 | 83 | 1014.9 |
| 20260506164025 | 84 | 117 | 2.6 | 2.6 | 0.00 | 0.00 | 0.00 | 83 | 1014.9 |
| 20260506163524 | 84 | 147 | 1.7 | 1.7 | 0.00 | 0.00 | 0.00 | 83 | 1014.6 |
| 20260506163025 | 84 | 124 | 1.7 | 1.7 | 0.00 | 0.00 | 0.00 | 83 | 1014.9 |
| 20260506162524 | 84 | 139 | 0.9 | 1.7 | 0.00 | 0.00 | 0.00 | 83 | 1014.9 |
| 20260506162024 | 84 | 150 | 1.7 | 1.7 | 0.00 | 0.00 | 0.00 | 83 | 1014.9 |
| 20260506161525 | 84 | 99 | 2.6 | 2.6 | 0.00 | 0.00 | 0.00 | 82 | 1014.6 |
| 20260506161025 | 84 | 125 | 2.6 | 4.3 | 0.00 | 0.00 | 0.00 | 82 | 1014.9 |
| 20260506160525 | 84 | 136 | 1.7 | 1.7 | 0.00 | 0.00 | 0.00 | 82 | 1014.9 |
| 20260506160025 | 84 | 89 | 3.5 | 5.2 | 0.00 | 0.00 | 0.00 | 82 | 1014.9 |
| 20260506155525 | 84 | 104 | 2.6 | 2.6 | 0.00 | 0.00 | 0.00 | 82 | 1014.9 |
| 20260506155024 | 84 | 159 | 1.7 | 1.7 | 0.00 | 0.00 | 0.00 | 82 | 1014.9 |
| 20260506154525 | 84 | 134 | 0.9 | 1.7 | 0.00 | 0.00 | 0.00 | 82 | 1014.6 |
| 20260506154025 | 84 | 169 | 0.0 | 0.0 | 0.00 | 0.00 | 0.00 | 82 | 1014.6 |
| 20260506153524 | 84 | 138 | 0.9 | 0.9 | 0.00 | 0.00 | 0.00 | 81 | 1014.6 |
| 20260506153026 | 84 | 142 | 0.9 | 0.9 | 0.00 | 0.00 | 0.00 | 81 | 1014.9 |
| 20260506152525 | 84 | 131 | 0.9 | 0.9 | 0.00 | 0.00 | 0.00 | 81 | 1014.6 |
| 20260506152024 | 84 | 132 | 2.6 | 2.6 | 0.00 | 0.00 | 0.00 | 81 | 1014.9 |
| 20260506151524 | 84 | 150 | 0.9 | 0.9 | 0.00 | 0.00 | 0.00 | 81 | 1014.9 |
| 20260506151024 | 84 | 124 | 1.7 | 1.7 | 0.00 | 0.00 | 0.00 | 81 | 1014.9 |
| 20260506150526 | 85 | 130 | 2.6 | 2.6 | 0.00 | 0.00 | 0.00 | 81 | 1014.9 |
| 20260506150026 | 85 | 181 | 0.9 | 0.9 | 0.00 | 0.00 | 0.00 | 81 | 1014.6 |
| 20260506145527 | 85 | 120 | 0.9 | 0.9 | 0.00 | 0.00 | 0.00 | 81 | 1014.9 |
| 20260506145024 | 85 | 132 | 1.7 | 1.7 | 0.00 | 0.00 | 0.00 | 81 | 1014.9 |
| 20260506144525 | 85 | 67 | 3.5 | 4.3 | 0.00 | 0.00 | 0.00 | 81 | 1014.9 |
| 20260506144025 | 85 | 116 | 1.7 | 1.7 | 0.00 | 0.00 | 0.00 | 81 | 1014.9 |
| 20260506143526 | 85 | 122 | 2.6 | 4.3 | 0.00 | 0.00 | 0.00 | 80 | 1014.9 |
| 20260506143024 | 85 | 108 | 1.7 | 1.7 | 0.00 | 0.00 | 0.00 | 81 | 1014.9 |
| 20260506142525 | 85 | 114 | 2.6 | 2.6 | 0.00 | 0.00 | 0.00 | 81 | 1014.9 |
| 20260506142025 | 85 | 76 | 1.7 | 2.6 | 0.00 | 0.00 | 0.00 | 80 | 1014.6 |
| 20260506141525 | 85 | 200 | 0.9 | 0.9 | 0.00 | 0.00 | 0.00 | 80 | 1014.6 |
| 20260506141025 | 85 | 116 | 0.9 | 1.7 | 0.00 | 0.00 | 0.00 | 80 | 1014.6 |
| 20260506140525 | 85 | 141 | 0.9 | 1.7 | 0.00 | 0.00 | 0.00 | 80 | 1014.6 |
| 20260506140025 | 85 | 147 | 0.9 | 1.7 | 0.00 | 0.00 | 0.00 | 80 | 1014.2 |
| 20260506135526 | 85 | 93 | 0.9 | 1.7 | 0.00 | 0.00 | 0.00 | 81 | 1014.6 |
| 20260506135024 | 85 | 167 | 0.0 | 0.0 | 0.00 | 0.00 | 0.00 | 81 | 1014.6 |
| 20260506134524 | 85 | 195 | 0.0 | 0.0 | 0.00 | 0.00 | 0.00 | 80 | 1014.2 |
| 20260506134025 | 85 | 125 | 2.6 | 2.6 | 0.00 | 0.00 | 0.00 | 80 | 1014.6 |
| 20260506133525 | 85 | 75 | 1.7 | 1.7 | 0.00 | 0.00 | 0.00 | 80 | 1014.6 |
| 20260506133025 | 85 | 195 | 0.0 | 0.9 | 0.00 | 0.00 | 0.00 | 80 | 1014.6 |
| 20260506132525 | 85 | 106 | 1.7 | 1.7 | 0.00 | 0.00 | 0.00 | 80 | 1014.2 |
| 20260506132024 | 85 | 110 | 2.6 | 2.6 | 0.00 | 0.00 | 0.00 | 80 | 1014.2 |
| 20260506131524 | 85 | 126 | 3.5 | 4.3 | 0.00 | 0.00 | 0.00 | 80 | 1014.6 |
| 20260506131025 | 85 | 125 | 0.9 | 0.9 | 0.00 | 0.00 | 0.00 | 79 | 1014.2 |
| 20260506130525 | 85 | 82 | 2.6 | 2.6 | 0.00 | 0.00 | 0.00 | 79 | 1014.2 |
| 20260506130024 | 85 | 108 | 1.7 | 1.7 | 0.00 | 0.00 | 0.00 | 79 | 1014.2 |
| 20260506125527 | 85 | 109 | 1.7 | 1.7 | 0.00 | 0.00 | 0.00 | 79 | 1014.2 |
| 20260506125025 | 85 | 108 | 2.6 | 2.6 | 0.00 | 0.00 | 0.00 | 79 | 1013.9 |
| 20260506124524 | 85 | 137 | 2.6 | 2.6 | 0.00 | 0.00 | 0.00 | 79 | 1013.9 |
| 20260506124026 | 85 | 110 | 0.9 | 1.7 | 0.00 | 0.00 | 0.00 | 78 | 1014.2 |
| 20260506123524 | 85 | 64 | 1.7 | 2.6 | 0.00 | 0.00 | 0.00 | 78 | 1013.9 |
| 20260506123024 | 85 | 171 | 0.9 | 0.9 | 0.00 | 0.00 | 0.00 | 78 | 1013.9 |
| 20260506122524 | 86 | 122 | 3.5 | 4.3 | 0.00 | 0.00 | 0.00 | 77 | 1013.5 |
| 20260506122024 | 86 | 155 | 0.9 | 0.9 | 0.00 | 0.00 | 0.00 | 77 | 1013.9 |
| 20260506121525 | 86 | 91 | 0.9 | 1.7 | 0.00 | 0.00 | 0.00 | 76 | 1013.9 |
| 20260506121026 | 86 | 130 | 3.5 | 4.3 | 0.00 | 0.00 | 0.00 | 76 | 1013.5 |
| 20260506120524 | 86 | 145 | 0.9 | 0.9 | 0.00 | 0.00 | 0.00 | 75 | 1013.5 |
| 20260506120025 | 86 | 71 | 0.9 | 0.9 | 0.00 | 0.00 | 0.00 | 75 | 1013.2 |
| 20260506115524 | 86 | 53 | 0.9 | 1.7 | 0.00 | 0.00 | 0.00 | 75 | 1013.2 |
| 20260506115025 | 86 | 164 | 0.9 | 1.7 | 0.00 | 0.00 | 0.00 | 75 | 1013.2 |
| 20260506114524 | 86 | 110 | 0.9 | 1.7 | 0.00 | 0.00 | 0.00 | 74 | 1013.2 |
| 20260506114024 | 86 | 4 | 1.7 | 1.7 | 0.00 | 0.00 | 0.00 | 75 | 1013.2 |
| 20260506113530 | 86 | 20 | 1.7 | 4.3 | 0.00 | 0.00 | 0.00 | 75 | 1013.2 |
| 20260506113025 | 86 | 36 | 0.9 | 1.7 | 0.00 | 0.00 | 0.00 | 75 | 1012.9 |
| 20260506112526 | 86 | 200 | 0.9 | 0.9 | 0.00 | 0.00 | 0.00 | 76 | 1012.9 |
| 20260506112024 | 86 | 4 | 2.6 | 2.6 | 0.00 | 0.00 | 0.00 | 76 | 1012.9 |
| 20260506111524 | 86 | 274 | 2.6 | 2.6 | 0.00 | 0.00 | 0.00 | 76 | 1012.9 |
| 20260506111024 | 86 | 9 | 2.6 | 2.6 | 0.00 | 0.00 | 0.00 | 76 | 1012.5 |
| 20260506110527 | 86 | 39 | 2.6 | 4.3 | 0.00 | 0.00 | 0.00 | 76 | 1012.5 |
| 20260506110024 | 86 | 2 | 0.9 | 1.7 | 0.00 | 0.00 | 0.00 | 76 | 1012.5 |
| 20260506105524 | 86 | 4 | 3.5 | 4.3 | 0.00 | 0.00 | 0.00 | 76 | 1012.2 |
| 20260506105026 | 86 | 37 | 5.2 | 6.1 | 0.00 | 0.00 | 0.00 | 75 | 1012.2 |
| 20260506104526 | 87 | 349 | 5.2 | 6.1 | 0.00 | 0.00 | 0.00 | 75 | 1012.2 |
| 20260506104024 | 87 | 9 | 2.6 | 2.6 | 0.00 | 0.00 | 0.00 | 75 | 1012.2 |
| 20260506103524 | 87 | 15 | 1.7 | 1.7 | 0.00 | 0.00 | 0.00 | 75 | 1012.2 |
| 20260506103025 | 87 | 30 | 4.3 | 7.0 | 0.00 | 0.00 | 0.00 | 75 | 1012.2 |
| 20260506102525 | 87 | 55 | 0.9 | 1.7 | 0.00 | 0.00 | 0.00 | 75 | 1011.9 |
| 20260506102024 | 87 | 158 | 0.0 | 0.0 | 0.00 | 0.00 | 0.00 | 75 | 1011.9 |
| 20260506101525 | 87 | 39 | 4.3 | 6.1 | 0.00 | 0.00 | 0.00 | 75 | 1012.2 |
| 20260506101031 | 87 | 26 | 5.2 | 6.1 | 0.00 | 0.00 | 0.00 | 74 | 1012.2 |
| 20260506100528 | 88 | 14 | 0.9 | 2.6 | 0.00 | 0.00 | 0.00 | 74 | 1011.9 |
| 20260506100026 | 88 | 349 | 3.5 | 5.2 | 0.00 | 0.00 | 0.00 | 73 | 1011.9 |
| 20260506095525 | 88 | 35 | 4.3 | 6.1 | 0.00 | 0.00 | 0.00 | 73 | 1011.9 |
| 20260506095024 | 88 | 352 | 5.2 | 7.0 | 0.00 | 0.00 | 0.00 | 73 | 1011.9 |
| 20260506094525 | 88 | 128 | 1.7 | 1.7 | 0.00 | 0.00 | 0.00 | 72 | 1011.9 |
| 20260506094024 | 89 | 8 | 1.7 | 2.6 | 0.00 | 0.00 | 0.00 | 71 | 1011.5 |
| 20260506093524 | 89 | 24 | 2.6 | 4.3 | 0.00 | 0.00 | 0.00 | 71 | 1011.9 |
| 20260506093025 | 89 | 35 | 6.1 | 7.8 | 0.00 | 0.00 | 0.00 | 71 | 1011.9 |
| 20260506092525 | 89 | 2 | 4.3 | 6.1 | 0.00 | 0.00 | 0.00 | 70 | 1011.5 |
| 20260506092025 | 89 | 18 | 6.1 | 8.7 | 0.00 | 0.00 | 0.00 | 70 | 1011.5 |
| 20260506091524 | 89 | 4 | 5.2 | 6.1 | 0.00 | 0.00 | 0.00 | 70 | 1011.5 |
| 20260506091028 | 89 | 114 | 4.3 | 6.1 | 0.00 | 0.00 | 0.00 | 69 | 1011.5 |
| 20260506090524 | 89 | 278 | 0.0 | 0.9 | 0.00 | 0.00 | 0.00 | 70 | 1011.5 |
| 20260506090024 | 89 | 332 | 2.6 | 5.2 | 0.00 | 0.00 | 0.00 | 69 | 1011.2 |
| 20260506085524 | 90 | 299 | 2.6 | 5.2 | 0.00 | 0.00 | 0.00 | 69 | 1011.5 |
| 20260506085024 | 90 | 309 | 6.1 | 7.8 | 0.00 | 0.00 | 0.00 | 67 | 1011.5 |
| 20260506084526 | 90 | 30 | 4.3 | 5.2 | 0.00 | 0.00 | 0.00 | 68 | 1011.5 |
| 20260506084024 | 90 | 355 | 4.3 | 7.8 | 0.00 | 0.00 | 0.00 | 68 | 1011.2 |
| 20260506083530 | 90 | 346 | 5.2 | 7.8 | 0.00 | 0.00 | 0.00 | 68 | 1011.5 |
| 20260506083024 | 90 | 15 | 4.3 | 6.1 | 0.00 | 0.00 | 0.00 | 68 | 1011.5 |
| 20260506082525 | 90 | 17 | 3.5 | 4.3 | 0.00 | 0.00 | 0.00 | 68 | 1011.5 |
| 20260506082025 | 89 | 7 | 2.6 | 2.6 | 0.00 | 0.00 | 0.00 | 69 | 1011.2 |
| 20260506081525 | 90 | 343 | 2.6 | 4.3 | 0.00 | 0.00 | 0.00 | 69 | 1011.2 |
| 20260506081024 | 90 | 348 | 2.6 | 2.6 | 0.00 | 0.00 | 0.00 | 70 | 1011.2 |
| 20260506080524 | 90 | 165 | 1.7 | 1.7 | 0.00 | 0.00 | 0.00 | 69 | 1011.2 |
| 20260506073524 | 90 | 322 | 1.7 | 2.6 | 0.00 | 0.00 | 0.00 | 69 | 1011.2 |
| 20260506073024 | 91 | 16 | 3.5 | 5.2 | 0.00 | 0.00 | 0.00 | 69 | 1011.5 |
| 20260506072524 | 91 | 31 | 1.7 | 2.6 | 0.00 | 0.00 | 0.00 | 68 | 1011.2 |
| 20260506072026 | 91 | 288 | 2.6 | 2.6 | 0.00 | 0.00 | 0.00 | 69 | 1011.5 |
| 20260506071524 | 90 | 334 | 2.6 | 2.6 | 0.00 | 0.00 | 0.00 | 69 | 1011.5 |
| 20260506071025 | 89 | 0 | 1.7 | 1.7 | 0.00 | 0.00 | 0.00 | 70 | 1011.5 |
| 20260506070524 | 89 | 109 | 7.0 | 8.7 | 0.00 | 0.00 | 0.00 | 69 | 1011.5 |
| 20260506062024 | 90 | 9 | 6.1 | 6.1 | 0.00 | 0.00 | 0.00 | 67 | 1012.2 |
| 20260506061525 | 89 | 32 | 2.6 | 2.6 | 0.00 | 0.00 | 0.00 | 68 | 1012.5 |
| 20260506061025 | 90 | 27 | 3.5 | 4.3 | 0.00 | 0.00 | 0.00 | 67 | 1012.2 |
| 20260506060526 | 91 | 5 | 2.6 | 5.2 | 0.00 | 0.00 | 0.00 | 62 | 1012.2 |
| 20260506051024 | 90 | 196 | 0.9 | 1.7 | 0.00 | 0.00 | 0.00 | 64 | 1013.5 |
| 20260506050525 | 91 | 100 | 3.5 | 5.2 | 0.00 | 0.00 | 0.00 | 63 | 1013.5 |
| 20260506045025 | 91 | 162 | 2.6 | 2.6 | 0.00 | 0.00 | 0.00 | 63 | 1013.9 |
| 20260506044524 | 90 | 2 | 1.7 | 1.7 | 0.00 | 0.00 | 0.00 | 63 | 1013.5 |
| 20260506044024 | 89 | 336 | 2.6 | 2.6 | 0.00 | 0.00 | 0.00 | 64 | 1013.9 |
| 20260506043524 | 89 | 166 | 3.5 | 5.2 | 0.00 | 0.00 | 0.00 | 65 | 1013.9 |
| 20260506043025 | 89 | 127 | 4.3 | 5.2 | 0.00 | 0.00 | 0.00 | 65 | 1013.9 |
| 20260506042524 | 89 | 124 | 3.5 | 4.3 | 0.00 | 0.00 | 0.00 | 65 | 1013.9 |
| 20260506042024 | 89 | 130 | 2.6 | 4.3 | 0.00 | 0.00 | 0.00 | 65 | 1013.9 |
| 20260506041524 | 89 | 153 | 4.3 | 6.1 | 0.00 | 0.00 | 0.00 | 64 | 1013.9 |
| 20260506041025 | 89 | 136 | 3.5 | 4.3 | 0.00 | 0.00 | 0.00 | 65 | 1013.9 |
| 20260506040525 | 89 | 75 | 4.3 | 5.2 | 0.00 | 0.00 | 0.00 | 65 | 1013.9 |
| 20260506040025 | 89 | 165 | 1.7 | 1.7 | 0.00 | 0.00 | 0.00 | 65 | 1014.2 |
| 20260506035524 | 89 | 348 | 2.6 | 2.6 | 0.00 | 0.00 | 0.00 | 65 | 1014.6 |
| 20260506035026 | 88 | 190 | 0.9 | 0.9 | 0.00 | 0.00 | 0.00 | 67 | 1014.2 |
| 20260506034524 | 88 | 117 | 3.5 | 5.2 | 0.00 | 0.00 | 0.00 | 67 | 1014.2 |
| 20260506034025 | 89 | 106 | 5.2 | 6.1 | 0.00 | 0.00 | 0.00 | 67 | 1014.6 |
| 20260506033525 | 89 | 137 | 4.3 | 5.2 | 0.00 | 0.00 | 0.00 | 66 | 1014.6 |
| 20260506033026 | 89 | 216 | 1.7 | 2.6 | 0.00 | 0.00 | 0.00 | 66 | 1014.9 |
| 20260506032525 | 89 | 166 | 2.6 | 4.3 | 0.00 | 0.00 | 0.00 | 67 | 1014.9 |
| 20260506032026 | 88 | 159 | 0.9 | 1.7 | 0.00 | 0.00 | 0.00 | 67 | 1014.9 |
| 20260506031524 | 89 | 118 | 5.2 | 6.1 | 0.00 | 0.00 | 0.00 | 66 | 1014.9 |
| 20260506031025 | 88 | 118 | 3.5 | 4.3 | 0.00 | 0.00 | 0.00 | 65 | 1014.9 |
| 20260506030524 | 88 | 116 | 3.5 | 4.3 | 0.00 | 0.00 | 0.00 | 66 | 1014.9 |
| 20260506030026 | 89 | 143 | 6.1 | 6.1 | 0.00 | 0.00 | 0.00 | 65 | 1014.9 |
| 20260506025524 | 88 | 149 | 0.9 | 1.7 | 0.00 | 0.00 | 0.00 | 68 | 1014.9 |
| 20260506025024 | 88 | 136 | 6.1 | 7.8 | 0.00 | 0.00 | 0.00 | 67 | 1014.9 |
| 20260506024525 | 89 | 125 | 6.1 | 7.8 | 0.00 | 0.00 | 0.00 | 66 | 1014.9 |
| 20260506024024 | 89 | 136 | 5.2 | 6.1 | 0.00 | 0.00 | 0.00 | 65 | 1014.9 |
| 20260506023524 | 88 | 135 | 1.7 | 1.7 | 0.00 | 0.00 | 0.00 | 68 | 1015.2 |
| 20260506023024 | 88 | 80 | 4.3 | 6.1 | 0.00 | 0.00 | 0.00 | 68 | 1014.9 |
| 20260506022524 | 87 | 110 | 4.3 | 5.2 | 0.00 | 0.00 | 0.00 | 69 | 1014.9 |
| 20260506022024 | 88 | 76 | 3.5 | 5.2 | 0.00 | 0.00 | 0.00 | 69 | 1014.9 |
| 20260506021525 | 88 | 77 | 7.0 | 7.8 | 0.00 | 0.00 | 0.00 | 67 | 1015.2 |
| 20260506021024 | 87 | 83 | 4.3 | 6.1 | 0.00 | 0.00 | 0.00 | 71 | 1015.2 |
| 20260506020525 | 87 | 153 | 4.3 | 5.2 | 0.00 | 0.00 | 0.00 | 71 | 1015.2 |
| 20260506020024 | 87 | 120 | 4.3 | 5.2 | 0.00 | 0.00 | 0.00 | 72 | 1015.2 |
| 20260506015524 | 87 | 102 | 5.2 | 6.1 | 0.00 | 0.00 | 0.00 | 71 | 1015.2 |
| 20260506015025 | 86 | 131 | 3.5 | 5.2 | 0.00 | 0.00 | 0.00 | 72 | 1015.2 |
| 20260506014524 | 86 | 108 | 2.6 | 4.3 | 0.00 | 0.00 | 0.00 | 73 | 1015.2 |
| 20260506014024 | 86 | 220 | 1.7 | 2.6 | 0.00 | 0.00 | 0.00 | 75 | 1015.2 |
| 20260506013524 | 85 | 136 | 2.6 | 2.6 | 0.00 | 0.00 | 0.00 | 77 | 1015.2 |
| 20260506013025 | 85 | 200 | 1.7 | 2.6 | 0.00 | 0.00 | 0.00 | 77 | 1015.2 |
| 20260506012524 | 85 | 152 | 3.5 | 5.2 | 0.00 | 0.00 | 0.00 | 78 | 1015.2 |
| 20260506012024 | 85 | 124 | 5.2 | 6.1 | 0.00 | 0.00 | 0.00 | 78 | 1015.2 |
| 20260506011525 | 84 | 161 | 3.5 | 4.3 | 0.00 | 0.00 | 0.00 | 79 | 1015.6 |
| 20260506011030 | 84 | 173 | 2.6 | 2.6 | 0.00 | 0.00 | 0.00 | 79 | 1015.2 |
| 20260506010524 | 84 | 131 | 0.9 | 1.7 | 0.00 | 0.00 | 0.00 | 80 | 1015.6 |
| 20260506010024 | 83 | 123 | 3.5 | 4.3 | 0.00 | 0.00 | 0.00 | 82 | 1015.2 |
| 20260506005524 | 83 | 162 | 3.5 | 5.2 | 0.00 | 0.00 | 0.00 | 82 | 1015.2 |
| 20260506005025 | 83 | 123 | 3.5 | 4.3 | 0.00 | 0.00 | 0.00 | 81 | 1015.2 |
| 20260506004525 | 82 | 117 | 1.7 | 1.7 | 0.00 | 0.00 | 0.00 | 83 | 1015.2 |
| 20260506004024 | 82 | 131 | 1.7 | 1.7 | 0.00 | 0.00 | 0.00 | 84 | 1015.2 |
| 20260506003524 | 82 | 187 | 1.7 | 1.7 | 0.00 | 0.00 | 0.00 | 84 | 1015.2 |
| 20260506003025 | 82 | 179 | 0.9 | 0.9 | 0.00 | 0.00 | 0.00 | 84 | 1015.2 |
| 20260506002526 | 82 | 258 | 0.9 | 0.9 | 0.00 | 0.00 | 0.00 | 84 | 1015.2 |
| 20260506002025 | 82 | 195 | 1.7 | 1.7 | 0.00 | 0.00 | 0.00 | 84 | 1015.2 |
| 20260506001524 | 82 | 178 | 0.0 | 0.0 | 0.00 | 0.00 | 0.00 | 84 | 1015.2 |
| 20260506001024 | 82 | 143 | 0.9 | 0.9 | 0.00 | 0.00 | 0.00 | 86 | 1015.2 |
| 20260506000526 | 81 | 221 | 1.7 | 1.7 | 0.00 | 0.00 | 0.00 | 87 | 1015.2 |
| 20260506000024 | 81 | 218 | 0.9 | 0.9 | 0.00 | 0.00 | 0.00 | 87 | 1015.2 |
| 20260505235524 | 81 | 189 | 1.7 | 1.7 | 0.00 | 0.00 | 0.00 | 88 | 1015.2 |